Location: Thouarc�
(47.2667°N, 0.5000°W)
Time: 09:54:35
(UTC+02:00)

ISS - Visible Passes

Search period start: 30 April 2025 00:00
Search period end: 10 May 2025 00:00
Orbit: 417 x 420 km, 51.6° (Epoch: 29 April)

Date Brightness Start Highest point End Pass type
(mag) Time Alt. Az. Time Alt. Az. Time Alt. Az.
30 Apr -0.7 03:00:31 11° ENE 03:00:31 11° ENE 03:00:44 10° ENE visible
30 Apr -3.1 04:33:26 38° WNW 04:34:18 50° NNW 04:37:35 10° ENE visible
30 Apr -2.4 06:08:19 10° WNW 06:11:29 38° N 06:14:41 10° ENE visible
01 May -2.8 03:47:10 47° NE 03:47:10 47° NE 03:49:45 10° ENE visible
01 May -2.4 05:20:22 10° WNW 05:23:32 37° N 05:26:42 10° ENE visible
02 May -1.3 03:00:51 18° ENE 03:00:51 18° ENE 03:01:53 10° ENE visible
02 May -2.5 04:33:46 21° WNW 04:35:33 38° N 04:38:44 10° ENE visible
03 May -2.7 03:47:25 42° NNW 03:47:33 43° N 03:50:48 10° ENE visible
03 May -2.5 05:21:33 10° WNW 05:24:46 42° N 05:27:59 10° E visible
04 May -1.8 03:01:03 27° NE 03:01:03 27° NE 03:02:51 10° ENE visible
04 May -2.3 04:33:57 13° WNW 04:36:44 38° N 04:39:55 10° ENE visible
05 May -0.8 02:14:40 12° ENE 02:14:40 12° ENE 02:14:54 10° ENE visible
05 May -2.3 03:47:34 28° NW 03:48:40 37° N 03:51:50 10° ENE visible
05 May -3.2 05:22:28 10° WNW 05:25:49 62° NNE 05:29:08 10° ESE visible
06 May -2.1 03:01:10 35° NNE 03:01:10 35° NNE 03:03:46 10° ENE visible
06 May -2.8 04:34:30 10° WNW 04:37:47 49° NNE 04:41:03 10° E visible
07 May -1.1 02:14:49 17° ENE 02:14:49 17° ENE 02:15:43 10° ENE visible
07 May -2.5 03:47:43 20° NW 03:49:41 41° N 03:52:54 10° E visible
07 May -3.9 05:23:16 10° WNW 05:26:37 69° SSW 05:29:57 10° SE visible
08 May -2.3 03:01:28 38° N 03:01:33 38° N 03:04:43 10° ENE visible
08 May -3.8 04:35:14 10° WNW 04:38:36 82° NNE 04:41:58 10° ESE visible
08 May -2.3 22:56:51 10° SSW 22:58:30 21° S 22:58:30 21° S visible
09 May -1.2 02:15:35 17° ENE 02:15:35 17° ENE 02:16:33 10° ENE visible
09 May -3.3 03:48:33 22° NW 03:50:31 61° NNE 03:53:50 10° E visible
09 May -3.0 05:24:09 10° W 05:27:09 30° SW 05:30:08 10° SSE visible
09 May -2.2 22:09:34 10° S 22:11:48 17° SE 22:14:04 10° E visible
09 May -3.9 23:44:49 10° WSW 23:48:11 87° SSE 23:50:03 24° ENE visible
